�������l�o���
Date,Time,MP-1(��Sv/h),MP-2(��Sv/h),MP-3(��Sv/h),MP-4(��Sv/h),MP-5(��Sv/h),MP-6(��Sv/h),MP-7(��Sv/h),MP-8(��Sv/h),����,����(m/s),���J
2019/09/17,00:00,0.722,1.007,0.700,1.246,0.901,0.414,0.720,0.683,�k��,2.0,��
2019/09/17,00:10,0.723,1.007,0.699,1.246,0.903,0.413,0.721,0.686,�k��,2.3,��
2019/09/17,00:20,0.721,1.004,0.700,1.247,0.903,0.414,0.720,0.683,�k��,1.4,��
2019/09/17,00:30,0.723,1.005,0.700,1.244,0.907,0.414,0.722,0.684,�k��,3.1,��
2019/09/17,00:40,0.722,1.007,0.701,1.245,0.904,0.414,0.721,0.684,�k��,2.6,��
2019/09/17,00:50,0.723,1.005,0.700,1.246,0.904,0.414,0.721,0.684,�k�k��,1.2,��
2019/09/17,01:00,0.721,1.007,0.701,1.246,0.904,0.414,0.722,0.684,��,0.9,��
2019/09/17,01:10,0.723,1.007,0.699,1.245,0.905,0.413,0.720,0.686,�쐼,1.2,��
2019/09/17,01:20,0.723,1.008,0.700,1.247,0.905,0.413,0.721,0.682,���쐼,0.9,��
2019/09/17,01:30,0.722,1.006,0.698,1.245,0.903,0.413,0.721,0.683,���k��,2.3,��
2019/09/17,01:40,0.724,1.005,0.701,1.245,0.904,0.414,0.722,0.685,�k��,3.1,��
2019/09/17,01:50,0.723,1.008,0.700,1.245,0.906,0.415,0.721,0.685,���k��,2.9,��
2019/09/17,02:00,0.723,1.008,0.698,1.244,0.903,0.415,0.720,0.685,���k��,3.7,��
2019/09/17,02:10,0.724,1.008,0.700,1.244,0.906,0.414,0.723,0.685,�k��,3.4,��
2019/09/17,02:20,0.724,1.006,0.701,1.248,0.904,0.413,0.722,0.686,�k��,2.0,��
2019/09/17,02:30,0.723,1.004,0.700,1.247,0.905,0.415,0.720,0.684,�k,1.1,��
2019/09/17,02:40,0.723,1.006,0.700,1.249,0.906,0.415,0.722,0.683,�k�k��,1.7,��
2019/09/17,02:50,0.721,1.006,0.699,1.248,0.907,0.414,0.721,0.683,�k�k��,3.0,��
2019/09/17,03:00,0.723,1.011,0.699,1.247,0.908,0.414,0.721,0.684,�k�k��,3.4,��
2019/09/17,03:10,0.722,1.007,0.700,1.248,0.905,0.415,0.722,0.683,�k�k��,1.9,��
2019/09/17,03:20,0.723,1.010,0.701,1.248,0.906,0.416,0.721,0.685,���k��,0.8,��
2019/09/17,03:30,0.723,1.006,0.702,1.249,0.905,0.415,0.722,0.683,���k��,0.8,��
2019/09/17,03:40,0.724,1.009,0.701,1.247,0.906,0.414,0.723,0.686,�k,0.6,��
2019/09/17,03:50,0.723,1.007,0.701,1.247,0.905,0.416,0.720,0.684,-,CALM,��
2019/09/17,04:00,0.722,1.009,0.702,1.248,0.907,0.414,0.722,0.684,-,CALM,��
2019/09/17,04:10,0.723,1.009,0.700,1.250,0.906,0.416,0.723,0.685,�k��,0.9,��
2019/09/17,04:20,0.722,1.007,0.699,1.247,0.907,0.415,0.723,0.684,�k��,0.8,��
2019/09/17,04:30,0.723,1.008,0.702,1.248,0.906,0.413,0.721,0.684,���쓌,0.6,��
2019/09/17,04:40,0.724,1.010,0.700,1.246,0.906,0.415,0.723,0.685,��쓌,1.4,��
2019/09/17,04:50,0.723,1.008,0.701,1.247,0.905,0.414,0.721,0.683,��쓌,1.5,��
2019/09/17,05:00,0.722,1.008,0.701,1.249,0.907,0.414,0.722,0.684,��쓌,2.2,��
2019/09/17,05:10,0.722,1.006,0.702,1.247,0.906,0.414,0.721,0.682,��,2.5,��
2019/09/17,05:20,0.722,1.008,0.700,1.248,0.907,0.414,0.722,0.684,��,2.5,��
2019/09/17,05:30,0.722,1.008,0.701,1.247,0.907,0.416,0.720,0.683,��쐼,1.7,��
2019/09/17,05:40,0.723,1.009,0.698,1.248,0.905,0.413,0.720,0.683,�쐼,0.6,��
2019/09/17,05:50,0.723,1.009,0.698,1.248,0.909,0.415,0.722,0.683,�k��,1.4,��
2019/09/17,06:00,0.723,1.010,0.701,1.252,0.906,0.415,0.722,0.683,�k�k��,2.5,��
2019/09/17,06:10,0.723,1.010,0.701,1.248,0.907,0.413,0.721,0.684,�k�k��,2.0,��
2019/09/17,06:20,0.723,1.008,0.702,1.248,0.906,0.414,0.724,0.684,�k��,3.2,��
2019/09/17,06:30,0.720,1.010,0.699,1.249,0.908,0.416,0.722,0.683,�k�k��,3.5,��
2019/09/17,06:40,0.725,1.007,0.701,1.248,0.907,0.414,0.721,0.685,�k�k��,3.4,��
2019/09/17,06:50,0.724,1.010,0.701,1.248,0.907,0.414,0.722,0.685,�k,3.1,��
2019/09/17,07:00,0.723,1.008,0.699,1.250,0.907,0.415,0.723,0.685,�k,3.1,��
2019/09/17,07:10,0.723,1.009,0.702,1.250,0.906,0.417,0.722,0.684,�k,3.0,��
2019/09/17,07:20,0.723,1.008,0.699,1.249,0.905,0.415,0.722,0.685,�k,3.3,��
2019/09/17,07:30,0.725,1.010,0.699,1.249,0.908,0.413,0.723,0.686,�k,2.9,��
2019/09/17,07:40,0.725,1.009,0.699,1.249,0.909,0.413,0.724,0.684,�k,2.3,��
2019/09/17,07:50,0.726,1.011,0.699,1.249,0.908,0.414,0.723,0.686,�k,2.3,��
2019/09/17,08:00,0.723,1.008,0.697,1.252,0.909,0.414,0.723,0.686,�k�k��,2.3,��
2019/09/17,08:10,0.722,1.010,0.699,1.249,0.908,0.414,0.723,0.685,�k,2.6,��
2019/09/17,08:20,0.724,1.006,0.694,1.250,0.909,0.414,0.722,0.685,�k�k��,3.4,��
2019/09/17,08:30,0.724,1.010,0.696,1.248,0.910,0.413,0.720,0.683,�k�k��,3.2,��
2019/09/17,08:40,0.724,1.010,0.698,1.250,0.908,0.411,0.721,0.683,�k�k��,4.4,��
2019/09/17,08:50,0.723,1.008,0.699,1.250,0.908,0.412,0.726,0.682,�k�k��,3.2,��
2019/09/17,09:00,0.727,1.010,0.698,1.250,0.911,0.416,0.723,0.683,�k��,3.6,��
2019/09/17,09:10,0.724,1.011,0.698,1.250,0.909,0.415,0.724,0.683,�k��,3.7,��
2019/09/17,09:20,0.724,1.008,0.700,1.250,0.911,0.414,0.722,0.683,�k��,3.8,��
2019/09/17,09:30,0.725,1.007,0.698,1.251,0.911,0.415,0.722,0.683,�k�k��,3.4,��
2019/09/17,09:40,0.726,1.006,0.700,1.249,0.913,0.413,0.723,0.683,�k��,2.5,��
2019/09/17,09:50,0.726,1.010,0.699,1.252,0.909,0.415,0.724,0.685,�k��,3.3,��
2019/09/17,10:00,0.725,1.009,0.699,1.254,0.912,0.415,0.724,0.685,�k�k��,3.7,��
2019/09/17,10:10,0.728,1.008,0.698,1.253,0.911,0.414,0.725,0.684,�k��,3.9,��
2019/09/17,10:20,0.728,1.011,0.699,1.253,0.912,0.416,0.724,0.684,�k��,4.3,��
2019/09/17,10:30,0.727,1.015,0.701,1.251,0.914,0.413,0.725,0.686,�k��,5.2,��
2019/09/17,10:40,0.728,1.013,0.703,1.254,0.912,0.415,0.725,0.684,�k��,4.4,��
2019/09/17,10:50,0.729,1.015,0.702,1.254,0.916,0.414,0.725,0.683,�k��,4.7,��
2019/09/17,11:00,0.729,1.016,0.702,1.255,0.916,0.415,0.725,0.685,�k��,3.6,��
2019/09/17,11:10,0.729,1.015,0.702,1.254,0.917,0.417,0.724,0.684,���k��,2.6,��
2019/09/17,11:20,0.727,1.018,0.703,1.254,0.914,0.416,0.725,0.684,�k��,3.5,��
2019/09/17,11:30,0.731,1.017,0.702,1.252,0.917,0.416,0.727,0.684,���k��,2.8,��
2019/09/17,11:40,0.728,1.017,0.703,1.255,0.916,0.416,0.726,0.685,�k��,3.7,��
2019/09/17,11:50,0.731,1.017,0.704,1.256,0.917,0.416,0.726,0.685,�k��,3.3,��
2019/09/17,12:00,0.731,1.021,0.706,1.257,0.916,0.416,0.726,0.686,�k��,3.7,��
2019/09/17,12:10,0.730,1.021,0.705,1.256,0.918,0.417,0.727,0.684,�k��,3.7,��
2019/09/17,12:20,0.730,1.024,0.705,1.258,0.919,0.417,0.725,0.686,�k��,3.3,��
2019/09/17,12:30,0.730,1.022,0.706,1.257,0.920,0.417,0.726,0.686,�k��,3.2,��
2019/09/17,12:40,0.730,1.025,0.705,1.256,0.919,0.416,0.726,0.687,�k,3.3,��
2019/09/17,12:50,0.728,1.022,0.708,1.257,0.922,0.416,0.725,0.685,�k�k��,4.5,��
2019/09/17,13:00,0.731,1.024,0.706,1.260,0.921,0.417,0.726,0.685,�k��,5.2,��
2019/09/17,13:10,0.732,1.022,0.706,1.255,0.924,0.416,0.725,0.686,�k�k��,3.4,��
2019/09/17,13:20,0.731,1.021,0.707,1.256,0.922,0.416,0.727,0.685,�k�k��,3.5,��
2019/09/17,13:30,0.731,1.023,0.704,1.258,0.922,0.418,0.726,0.684,�k��,3.1,��
2019/09/17,13:40,0.732,1.019,0.707,1.258,0.921,0.418,0.728,0.686,�k�k��,3.2,��
2019/09/17,13:50,0.734,1.023,0.706,1.258,0.921,0.417,0.726,0.686,�k,3.7,��
2019/09/17,14:00,0.733,1.023,0.706,1.257,0.921,0.418,0.727,0.686,�k��,4.0,��
2019/09/17,14:10,0.733,1.022,0.707,1.258,0.920,0.417,0.725,0.686,�k�k��,4.3,��
2019/09/17,14:20,0.733,1.020,0.706,1.260,0.920,0.417,0.725,0.686,�k�k��,3.8,��
2019/09/17,14:30,0.732,1.021,0.706,1.257,0.921,0.418,0.726,0.688,�k�k��,3.0,��
2019/09/17,14:40,0.731,1.024,0.707,1.258,0.922,0.419,0.725,0.686,�k�k��,3.3,��
2019/09/17,14:50,0.731,1.023,0.709,1.257,0.923,0.419,0.727,0.686,�k�k��,2.9,��
2019/09/17,15:00,0.732,1.025,0.705,1.262,0.923,0.418,0.726,0.687,�k��,3.0,��
2019/09/17,15:10,0.733,1.026,0.709,1.261,0.923,0.418,0.727,0.686,�k��,3.3,��
2019/09/17,15:20,0.733,1.029,0.707,1.261,0.926,0.416,0.727,0.686,���k��,2.6,��
2019/09/17,15:30,0.731,1.025,0.707,1.260,0.924,0.417,0.726,0.687,���k��,2.3,��
2019/09/17,15:40,0.732,1.028,0.707,1.260,0.923,0.417,0.727,0.685,���k��,2.6,��
2019/09/17,15:50,0.732,1.026,0.708,1.260,0.923,0.417,0.726,0.686,��,2.6,��
2019/09/17,16:00,0.733,1.028,0.708,1.260,0.924,0.416,0.726,0.687,���쓌,2.3,��
2019/09/17,16:10,0.732,1.028,0.709,1.261,0.924,0.417,0.726,0.686,�쓌,1.2,��
2019/09/17,16:20,0.732,1.027,0.707,1.260,0.925,0.418,0.726,0.685,���쓌,1.4,��
2019/09/17,16:30,0.732,1.029,0.708,1.263,0.925,0.417,0.726,0.686,���k��,1.7,��
2019/09/17,16:40,0.733,1.029,0.706,1.261,0.924,0.417,0.727,0.687,���쓌,1.2,��
2019/09/17,16:50,0.732,1.029,0.707,1.261,0.924,0.418,0.725,0.685,�k��,1.5,��
2019/09/17,17:00,0.732,1.029,0.707,1.263,0.927,0.419,0.727,0.686,���k��,0.9,��
2019/09/17,17:10,0.731,1.030,0.707,1.260,0.925,0.417,0.725,0.686,���쓌,1.2,��
2019/09/17,17:20,0.731,1.029,0.709,1.261,0.926,0.419,0.726,0.688,�쓌,1.2,��
2019/09/17,17:30,0.731,1.029,0.709,1.262,0.925,0.419,0.727,0.688,��,1.1,��
2019/09/17,17:40,0.733,1.030,0.710,1.262,0.924,0.417,0.725,0.687,���쓌,1.5,��
2019/09/17,17:50,0.733,1.031,0.710,1.262,0.925,0.419,0.727,0.688,��,1.7,��
2019/09/17,18:00,0.735,1.031,0.711,1.262,0.926,0.418,0.728,0.690,���쓌,1.5,��
2019/09/17,18:10,0.733,1.028,0.710,1.263,0.927,0.418,0.726,0.687,���쓌,1.7,��
2019/09/17,18:20,0.735,1.032,0.708,1.257,0.928,0.417,0.728,0.688,��,1.7,��
2019/09/17,18:30,0.734,1.031,0.711,1.259,0.926,0.418,0.728,0.688,���쓌,2.3,��
2019/09/17,18:40,0.734,1.032,0.710,1.262,0.925,0.419,0.726,0.687,���쓌,2.2,��
2019/09/17,18:50,0.735,1.033,0.711,1.263,0.925,0.419,0.726,0.687,���쓌,1.7,��
2019/09/17,19:00,0.734,1.030,0.709,1.264,0.925,0.419,0.728,0.689,���쓌,2.2,��
2019/09/17,19:10,0.734,1.031,0.709,1.263,0.925,0.418,0.728,0.686,���쓌,2.8,��
2019/09/17,19:20,0.734,1.030,0.710,1.263,0.926,0.417,0.727,0.687,��,2.9,��
2019/09/17,19:30,0.736,1.031,0.709,1.263,0.926,0.419,0.727,0.689,���쓌,2.3,��
2019/09/17,19:40,0.735,1.031,0.709,1.262,0.927,0.417,0.727,0.690,���쓌,2.6,��
2019/09/17,19:50,0.733,1.032,0.711,1.261,0.926,0.418,0.728,0.688,��,3.0,��
2019/09/17,20:00,0.732,1.032,0.710,1.262,0.925,0.417,0.726,0.687,��,4.0,��
2019/09/17,20:10,0.732,1.029,0.710,1.261,0.926,0.418,0.726,0.689,��,3.8,��
2019/09/17,20:20,0.732,1.030,0.710,1.263,0.927,0.418,0.726,0.689,���쓌,4.7,��
2019/09/17,20:30,0.733,1.029,0.708,1.261,0.927,0.417,0.727,0.689,��,4.1,��
2019/09/17,20:40,0.733,1.031,0.709,1.264,0.925,0.419,0.728,0.689,��,3.9,��
2019/09/17,20:50,0.730,1.029,0.712,1.260,0.924,0.417,0.726,0.689,��,4.1,��
2019/09/17,21:00,0.729,1.029,0.710,1.264,0.925,0.418,0.728,0.689,��,4.5,��
2019/09/17,21:10,0.733,1.031,0.711,1.263,0.923,0.418,0.727,0.689,��,4.1,��
2019/09/17,21:20,0.730,1.031,0.710,1.262,0.923,0.417,0.726,0.688,��,4.2,��
2019/09/17,21:30,0.731,1.029,0.711,1.261,0.925,0.417,0.728,0.688,��,4.1,��
2019/09/17,21:40,0.730,1.030,0.712,1.263,0.925,0.417,0.727,0.689,��,5.2,��
2019/09/17,21:50,0.730,1.031,0.711,1.265,0.922,0.418,0.726,0.688,���k��,5.3,��
2019/09/17,22:00,0.730,1.030,0.709,1.263,0.924,0.417,0.727,0.691,��,5.9,��
2019/09/17,22:10,0.732,1.030,0.709,1.262,0.924,0.418,0.727,0.688,��,5.4,��
2019/09/17,22:20,0.731,1.030,0.712,1.262,0.924,0.417,0.725,0.688,���k��,5.1,��
2019/09/17,22:30,0.731,1.030,0.713,1.263,0.922,0.417,0.727,0.689,��,4.9,��
2019/09/17,22:40,0.731,1.029,0.711,1.263,0.925,0.418,0.728,0.690,���k��,4.6,��
2019/09/17,22:50,0.730,1.029,0.709,1.261,0.925,0.418,0.725,0.689,��,4.3,��
2019/09/17,23:00,0.730,1.029,0.710,1.264,0.924,0.416,0.726,0.688,��,3.6,��
2019/09/17,23:10,0.730,1.032,0.710,1.263,0.923,0.416,0.725,0.691,���k��,2.3,��
2019/09/17,23:20,0.729,1.030,0.712,1.262,0.926,0.419,0.726,0.688,���k��,2.5,��
2019/09/17,23:30,0.730,1.031,0.709,1.263,0.928,0.419,0.729,0.689,�k��,2.0,��
2019/09/17,23:40,0.730,1.034,0.709,1.264,0.924,0.418,0.727,0.689,�k��,1.5,��
2019/09/17,23:50,0.732,1.032,0.710,1.263,0.926,0.419,0.728,0.689,�k��,1.5,��
